Regional Weather Roundup
Issued by NWS Little Rock, AR

Home | Current Version | Previous Version | Text Only | Print | Product List | Glossary Off
Versions: 1 2 3 4 5 6 7 8 9 10 11 12 13 14 15 16 17 18 19 20 21 22 23 24 25 26 27

000
ASUS44 KLZK 010805
RWRLZK

WEATHER ROUNDUP FOR ARKANSAS
NATIONAL WEATHER SERVICE LITTLE ROCK AR
300 AM CDT SUN MAY 01 2016

NOTE: "FAIR" INDICATES FEW OR NO CLOUDS BELOW 12,000 FEET WITH NO
SIGNIFICANT WEATHER AND/OR OBSTRUCTIONS TO VISIBILITY.

ARZ001-003-010-029-010900-
NORTHWEST ARKANSAS

CITY           SKY/WX    TMP DP  RH WIND       PRES   REMARKS
FAYETTEVILLE   CLEAR     50  50 100 CALM      29.94R
FORT SMITH     CLEAR     60  50  69 NW9       29.92R
HARRISON       CLEAR     55  51  86 W5        29.91S
BENTONVILLE    CLEAR    N/A N/A N/A CALM      29.94S
ROGERS         CLEAR     51  49  92 NW5       29.94R
SILOAM SPGS    CLEAR     48  39  71 N6        29.95S
HIGHFILL       CLEAR     52  49  89 NW7       29.93S
$$

ARZ004-005-016-010900-
NORTH CENTRAL ARKANSAS

CITY           SKY/WX    TMP DP  RH WIND       PRES   REMARKS
BATESVILLE     CLEAR     61  59  94 W5        29.87S
FLIPPIN        PTCLDY   N/A N/A N/A W6        29.86S
MTN HOME       PTCLDY    58  57  97 CALM      29.88R
$$

ARZ040-041-010900-
WEST CENTRAL ARKANSAS

CITY           SKY/WX    TMP DP  RH WIND       PRES   REMARKS
MENA           CLEAR     63  59  88 CALM      29.91S
MOUNT IDA      CLOUDY    63  60  90 VRB3      29.88R
$$

ARZ009-017-025-026-028-010900-
NORTHEAST ARKANSAS

CITY           SKY/WX    TMP DP  RH WIND       PRES   REMARKS
CORNING        LGT RAIN  64  63  94 NW9       29.86F
JONESBORO      MOCLDY    68  64  87 CALM      29.85S
NEWPORT        CLOUDY    66  64  93 N7        29.87S
WALNUT RIDGE   CLOUDY    63  59  88 N5        29.85F
BLYTHEVILLE    CLOUDY    66  63  90 S3        29.86R
$$

ARZ022-023-033-042-044-010900-
CENTRAL ARKANSAS

CITY           SKY/WX    TMP DP  RH WIND       PRES   REMARKS
LITTLE ROCK    CLOUDY    69  64  84 NW5       29.85S
N LITTLE ROCK    N/A     66  63  91 N3        29.84R
SEARCY         CLEAR     63  63 100 NW3       29.87R
HOT SPRINGS    PTCLDY    66  62  87 W6        29.88R
RUSSELLVILLE   MOCLDY    64  62  93 NW7       29.88R
$$

ARZ036-010900-
EAST ARKANSAS

CITY           SKY/WX    TMP DP  RH WIND       PRES   REMARKS
WEST MEMPHIS   CLEAR     64  64 100 S6        29.84S
$$

ARZ050-053-066-070-073-010900-
SOUTHWEST ARKANSAS

CITY           SKY/WX    TMP DP  RH WIND       PRES   REMARKS
ARKADELPHIA    FAIR      68  68 100 CALM      29.86S
CAMDEN         LGT RAIN  68  64  88 CALM      29.85S
TEXARKANA      MOCLDY    67  63  87 N7        29.86S
EL DORADO      CLOUDY    69  68  96 E3        29.84S
DE QUEEN       CLEAR     62  61  96 CALM      29.86S
$$

ARZ056-057-069-010900-
SOUTHEAST ARKANSAS

CITY           SKY/WX    TMP DP  RH WIND       PRES   REMARKS
PINE BLUFF     PTCLDY    68  65  90 SW7       29.85R
STUTTGART      CLOUDY    66  63  88 NW6       29.86R
MONTICELLO     CLEAR     69  66  90 S3        29.85S

$$






USA.gov is the U.S. government's official web portal to all federal, state and local government web resources and services.